{"data":{"norad_id":55452,"intl_designator":"2023-015D","name":"STARLINK-5683","alt_names":[],"object_type":"PAYLOAD","status":"ACTIVE","operator":null,"country":"US","launch_date":"2023-02-02","launch_site_code":"AFETR","launch_vehicle":null,"mission":null,"orbit_class":"UNKNOWN","rcs_meters":null,"size_class":null,"mass_kg":null,"dimensions":null,"purposes":["comms"],"wikipedia_slug":null,"has_3d_model":false,"image_url":null,"decayed_at":null,"tle_current":{"epoch":"2026-05-25T00:59:27.505248Z","epoch_age_seconds":71505,"freshness":"FRESH","line1":"1 55452U 23015D   26145.04129057  .00000007  00000+0  97811-5 0  9995","line2":"2 55452  43.0023 257.9872 0002006 288.4712  71.5922 15.27574901182395","mean_motion":15.27574901,"eccentricity":0.0002006,"inclination_deg":43.0023,"raan_deg":257.9872,"arg_perigee_deg":288.4712,"mean_anomaly_deg":71.5922,"bstar":9.7811e-6,"rev_number":18239,"period_min":94.267063373281,"perigee_km":481.6880073288,"apogee_km":484.44072131616,"semimajor_km":6861.2013643225,"source":"CELESTRAK","updated_at":"2026-05-25T13:38:17.802582Z"}}}